Temperature
19 20 20 20 20 19 19 19 19 19 19 19 19 19 19 19 19 19 19 19 19 19 19 19 19 19 19 19 19 19 19 19 19 19 19 19 19 19 19 18 18 18 19
20 19 20 20 19 19 19 19 19 19 19 19 19 19 19 19 19 19 19 19 19 19 19 19 19 19 19 19 19 19 19 19 19 19 19 19 19 19 19 18 18 18 18
19 19 19 20 19 19 19 19 19 19 19 19 19 19 19 19 19 19 19 19 19 19 19 19 19 19 19 19 19 19 19 19 19 18 18 18 18 18 19 19 18 18 18
19 19 19 19 19 19 19 19 19 19 19 19 19 19 19 19 19 19 19 19 19 19 18 18 18 19 19 19 19 19 19 19 18 18 18 18 18 18 19 19 18 18 18
19 19 19 19 19 19 19 19 19 19 19 19 19 19 19 18 18 18 18 18 18 18 18 18 18 19 19 19 19 19 19 19 18 18 18 18 18 18 19 18 18 18 18
18 19 19 19 19 19 19 18 18 18 18 18 18 18 18 18 18 18 18 18 18 18 18 18 18 18 18 18 19 19 19 18 18 18 18 18 18 18 18 18 18 18 18
18 18 18 18 19 18 18 18 18 18 18 18 18 18 18 18 18 18 18 18 18 18 18 18 18 18 18 18 18 19 19 18 18 18 18 18 18 18 18 18 18 18 18
18 18 18 18 18 18 18 18 18 18 18 18 18 18 18 18 18 18 18 18 18 18 18 18 18 18 18 18 18 19 19 19 18 18 18 18 18 18 18 18 18 18 18
18 18 18 18 18 17 18 18 18 18 18 18 18 18 18 18 18 18 18 18 18 18 18 18 18 18 18 18 18 19 19 19 19 18 18 18 18 18 18 18 18 18 18
18 18 18 18 17 17 17 17 18 18 18 18 18 18 18 18 18 18 18 18 18 18 18 18 18 18 18 18 19 19 19 19 19 18 18 18 18 18 18 18 18 18 18
18 18 18 17 17 17 17 17 17 17 17 17 17 17 17 18 18 18 18 18 18 18 18 18 18 18 18 18 18 19 19 19 18 18 18 18 18 18 18 18 18 18 18
18 17 17 17 17 17 17 17 17 17 17 17 17 17 17 17 17 17 17 18 18 18 18 18 18 18 18 18 18 18 19 19 18 18 18 18 18 18 18 18 18 18 18
18 17 17 17 17 17 16 16 16 16 16 16 16 16 16 17 17 17 17 17 17 17 18 18 18 18 18 18 18 18 19 19 18 18 18 18 18 18 19 18 18 18 18
18 17 17 16 16 16 16 16 16 16 16 16 16 16 16 16 16 16 17 17 17 17 17 17 18 18 18 18 18 18 18 19 19 18 18 18 18 18 19 18 18 18 18
18 17 17 16 16 16 16 16 15 15 15 15 15 15 16 16 16 16 16 16 17 17 17 17 17 17 18 18 18 18 19 19 19 19 19 18 18 18 18 18 18 18 18
17 17 16 16 15 15 15 15 15 15 15 15 15 15 15 15 15 16 16 16 16 16 17 17 17 17 17 18 18 19 19 19 19 19 19 19 18 18 18 18 18 18 18
17 16 16 16 15 15 15 14 14 14 15 14 14 15 15 15 15 15 15 16 16 16 16 17 17 17 17 18 18 18 19 19 19 19 18 19 18 18 18 18 18 18 18
16 16 16 15 15 15 14 14 14 14 14 14 14 14 14 14 15 15 15 15 15 15 16 16 16 17 17 17 18 18 18 18 19 19 18 18 18 18 18 18 18 18 18
16 16 16 15 15 14 14 14 14 14 14 14 14 14 14 14 14 14 15 15 15 15 15 16 16 16 17 17 17 18 18 18 18 18 18 18 18 18 18 18 18 18 18
16 16 15 15 15 14 14 14 14 14 14 14 14 14 14 14 14 14 14 14 15 15 15 15 16 16 16 17 17 17 17 18 18 18 18 18 18 18 18 18 18 18 18
16 16 15 15 14 14 14 14 13 13 13 13 13 13 13 13 13 13 14 14 14 14 15 15 15 16 16 16 16 17 17 17 17 18 18 18 18 18 18 18 18 18 18
16 15 15 14 14 14 14 13 13 13 13 13 13 13 13 13 13 13 13 13 14 14 14 15 15 15 15 16 16 16 16 17 17 17 18 18 18 18 18 18 18 18 18
16 15 15 14 14 14 14 14 13 13 13 13 13 13 13 13 13 13 13 13 13 14 14 14 14 15 15 15 16 16 16 16 17 17 18 17 17 18 18 17 18 17 17
16 15 14 14 14 13 13 13 13 13 13 13 13 13 13 13 13 13 13 13 13 13 14 14 14 14 15 15 15 16 16 16 16 17 17 17 17 17 18 17 17 17 17
15 15 14 14 13 13 13 13 13 13 13 13 13 13 13 13 13 13 13 13 13 13 14 14 14 14 14 15 15 15 15 16 16 16 16 17 17 17 17 17 17 17 17
15 15 14 14 13 13 13 13 13 13 13 13 13 13 13 13 13 13 13 13 13 13 13 13 14 14 14 14 15 15 15 15 16 16 16 16 16 17 17 17 17 17 17
Wind_Speed
8 13 11 9 7 5 4 3 3 3 2 1 1 1 2 2 2 3 4 4 5 5 5 6 6 6 6 7 7 7 7 7 5 4 4 5 5 6 6 6 5 7 8
10 14 11 8 6 5 3 3 2 1 1 0 1 1 1 2 2 3 3 3 4 4 4 5 5 5 5 6 6 6 6 5 4 3 1 2 5 6 6 7 8 7 7
11 12 11 8 6 4 3 2 2 2 2 2 2 2 2 2 2 3 3 3 3 3 3 3 4 4 4 5 5 6 5 5 5 6 6 2 5 6 6 7 7 7 7
12 13 11 9 7 5 4 3 3 3 4 4 4 4 4 3 4 4 4 4 4 4 3 2 3 3 3 4 5 5 5 6 8 9 6 2 6 7 6 6 6 6 6
12 13 12 11 9 7 6 5 4 4 4 4 4 5 5 6 5 5 5 5 5 5 4 2 2 2 2 3 4 4 5 7 9 10 4 9 10 7 6 6 6 6 6
10 12 12 11 9 8 7 6 5 5 5 4 4 5 5 6 6 6 6 6 6 5 5 3 3 3 3 2 3 4 5 7 10 8 3 9 9 7 6 5 5 5 5
9 9 10 9 8 7 6 6 5 5 5 5 4 4 5 6 6 7 7 7 7 6 6 5 4 4 4 3 3 4 5 8 10 7 3 9 9 8 6 5 5 5 5
7 7 7 7 6 6 5 5 5 5 5 5 5 5 5 6 6 7 8 8 8 7 7 6 6 6 5 5 4 5 6 8 8 6 5 10 10 8 6 5 5 5 5
6 5 4 5 4 4 3 3 2 3 4 5 6 6 6 7 7 8 9 10 9 9 8 8 7 7 7 6 6 6 7 8 10 9 2 10 10 8 6 5 5 5 5
5 5 3 3 4 3 1 3 2 3 4 6 8 8 8 9 10 10 11 11 11 10 10 9 9 9 9 9 9 8 8 9 11 8 5 10 11 8 6 6 5 5 5
6 5 4 4 3 3 4 2 3 5 6 7 8 9 9 8 9 9 10 9 10 10 11 11 10 10 11 11 12 12 10 10 11 5 8 13 11 9 7 6 6 6 6
5 6 5 5 4 4 5 4 3 5 5 6 7 6 6 7 7 8 7 10 11 11 11 12 12 11 11 11 13 14 10 13 11 5 11 15 12 9 7 7 7 7 7
5 6 5 5 5 4 3 3 3 4 5 5 5 6 6 6 6 6 4 6 8 10 9 9 10 10 11 10 7 10 12 12 8 6 13 16 13 10 8 8 7 7 8
5 5 5 6 5 5 4 3 3 2 2 3 4 6 4 2 2 3 2 3 4 5 5 5 5 8 9 10 7 8 9 6 4 8 14 17 14 11 10 9 8 8 8
6 5 5 6 7 6 5 3 4 2 3 5 4 5 5 2 3 3 2 2 4 5 4 4 4 6 6 5 5 5 4 4 5 8 13 17 16 13 11 10 10 9 9
7 6 6 6 6 7 6 6 5 4 5 5 4 6 7 3 2 3 3 3 3 4 6 4 5 5 5 4 4 4 3 2 4 7 12 15 17 15 13 12 11 11 11
7 7 6 6 6 7 6 6 5 5 5 3 4 7 8 6 4 3 3 3 3 5 5 4 4 3 4 4 4 4 3 3 3 4 11 13 14 15 15 13 13 12 12
6 6 6 7 7 7 6 5 4 4 4 4 5 5 6 7 7 3 3 3 3 4 3 3 4 4 4 3 3 3 4 3 3 3 5 10 13 13 15 15 14 14 13
4 5 6 6 6 6 6 5 4 4 4 4 5 4 5 7 8 4 3 3 3 3 3 4 4 3 4 4 3 3 4 4 3 4 3 6 10 13 14 16 17 16 15
4 6 7 6 6 6 5 5 4 5 5 4 3 4 5 5 7 5 3 4 3 3 3 3 4 3 3 3 4 4 3 3 3 3 4 3 5 10 13 15 15 15 16
5 6 6 6 6 5 4 4 4 5 5 4 4 4 5 5 5 4 4 4 3 3 3 4 3 3 3 3 2 2 3 4 3 3 3 2 2 5 10 13 13 13 13
5 5 6 6 6 6 4 4 3 4 4 4 4 4 5 5 5 5 4 3 3 3 3 3 3 2 2 3 3 2 2 2 3 5 3 3 3 2 4 10 12 13 14
4 5 6 5 6 6 6 4 5 4 4 4 4 4 4 5 4 3 4 4 4 3 3 3 3 2 2 3 3 3 3 3 2 2 4 4 4 2 3 3 6 10 13
4 5 6 6 6 7 7 5 6 5 5 5 4 4 4 4 4 4 4 4 4 3 3 4 3 3 3 3 2 3 2 1 2 1 2 4 4 3 3 2 3 5 9
4 5 5 6 6 6 7 6 5 4 4 4 5 5 5 4 4 4 4 4 3 3 3 4 3 3 3 3 3 2 2 2 2 2 2 2 2 2 2 2 2 1 5
4 4 4 4 5 5 6 7 6 6 6 7 6 5 5 4 4 4 4 4 3 2 3 3 3 3 3 3 3 3 3 3 3 2 2 2 2 2 2 1 1 2 3
Wind_Direction
107 112 116 108 104 99 91 84 84 89 89 80 54 32 23 19 18 26 26 22 18 19 23 25 25 27 29 26 24 26 26 27 30 37 50 65 71 67 57 48 57 85 87
102 111 113 107 100 95 87 67 52 49 53 10 359 350 343 341 350 0 354 356 360 3 10 19 19 22 24 22 20 20 20 14 360 350 354 100 92 76 62 57 66 88 89
86 104 106 98 89 78 63 34 6 349 332 308 290 284 288 293 303 308 307 317 329 337 349 7 9 9 14 16 15 12 8 353 333 317 294 236 119 87 73 70 75 81 86
75 81 85 85 75 62 46 25 358 336 321 313 304 295 287 282 278 282 285 291 298 305 315 337 356 357 359 10 8 3 352 332 320 314 313 96 114 93 83 76 79 81 88
77 78 76 75 67 59 49 32 13 355 337 322 310 302 292 281 274 275 279 282 287 290 293 306 323 332 332 351 355 350 340 324 316 307 347 87 95 96 87 80 81 87 91
77 83 80 72 69 61 50 39 23 5 350 334 318 302 291 279 272 272 274 275 278 282 281 280 279 285 292 307 326 330 328 320 312 303 56 98 105 101 94 88 84 92 94
74 81 89 83 76 70 60 46 29 9 354 343 330 315 297 285 277 273 272 273 275 273 269 265 263 264 267 276 293 307 315 315 294 290 92 106 112 105 96 95 95 97 100
81 86 102 105 96 86 73 56 34 9 348 329 316 307 297 288 276 269 267 265 266 265 262 260 253 248 248 257 267 281 296 301 305 307 124 117 118 110 102 98 101 103 109
81 77 75 90 105 116 109 92 45 359 327 309 299 289 282 280 273 265 259 254 252 252 252 252 248 243 240 243 252 262 276 288 293 290 142 123 123 118 113 109 109 108 108
64 59 56 46 42 31 174 171 225 262 277 286 284 281 276 272 268 262 256 249 244 244 243 240 240 240 241 240 243 248 256 274 268 267 131 129 127 123 123 123 120 116 114
45 35 18 13 9 342 316 315 254 262 255 268 274 271 266 266 269 264 251 250 244 240 239 235 234 235 239 240 239 238 241 248 253 223 132 136 134 130 132 136 130 125 122
35 31 15 357 347 343 331 332 297 296 273 262 274 281 263 262 267 271 261 248 242 241 242 237 235 233 236 240 235 227 231 236 245 198 145 145 141 140 143 147 144 137 134
34 30 7 353 343 334 318 333 320 294 279 271 278 282 271 269 267 268 263 249 234 233 236 236 230 230 232 233 224 206 222 231 217 169 151 151 148 149 153 155 153 148 143
35 25 10 358 341 331 336 340 294 294 298 294 289 290 282 261 265 262 258 251 238 233 227 228 219 226 236 239 223 218 223 218 184 147 155 155 154 157 161 163 162 157 152
26 16 21 3 352 342 341 321 329 329 326 312 310 299 284 256 260 259 258 243 238 231 221 225 222 235 240 243 244 244 240 206 186 160 159 161 161 165 168 170 170 166 160
17 7 20 5 354 349 349 346 336 326 311 312 321 310 303 294 266 268 260 249 241 238 227 216 226 235 240 246 257 265 265 231 208 160 161 168 169 170 172 176 175 173 170
8 3 11 350 5 354 351 348 329 316 322 326 324 315 317 310 289 270 274 261 244 246 238 225 230 241 239 244 255 267 275 247 230 182 168 169 173 177 177 179 179 178 176
4 355 356 356 1 351 351 329 317 326 338 329 322 321 325 321 312 295 278 269 258 258 242 235 221 232 236 232 247 256 267 253 248 232 186 172 171 178 182 184 181 181 182
358 353 360 9 356 353 344 330 336 337 331 325 332 340 335 329 321 318 303 278 268 257 245 249 231 220 227 222 233 244 259 260 246 244 223 186 176 174 176 185 185 183 184
6 9 10 5 2 359 355 343 340 332 331 330 333 333 335 323 322 319 295 294 288 267 247 249 250 229 224 213 230 246 246 255 265 260 253 216 176 171 172 176 181 187 188
19 18 4 5 2 3 359 340 335 330 326 320 314 325 326 318 316 303 301 307 304 281 258 252 254 241 226 201 190 255 260 238 247 257 263 270 204 179 164 169 177 182 189
17 15 5 3 358 2 348 331 318 320 311 309 314 321 330 327 321 309 309 310 304 293 276 264 261 235 235 197 173 174 230 256 251 234 234 250 253 209 174 179 181 179 181
23 18 4 359 357 360 348 349 339 330 324 332 328 329 324 316 316 307 306 303 296 291 279 267 252 230 233 231 202 185 184 210 230 243 215 221 233 227 200 192 183 182 179
31 26 5 4 7 3 352 357 341 338 339 328 330 325 323 324 329 322 307 300 292 284 283 273 256 236 220 227 228 223 222 172 174 224 240 218 215 220 210 219 206 189 180
34 29 7 2 9 0 344 331 323 349 337 328 333 331 333 335 334 328 319 302 291 280 275 274 272 252 230 223 218 206 218 223 219 187 207 219 221 225 209 213 208 181 166
36 24 4 7 4 351 338 336 349 355 343 338 340 343 337 331 332 344 338 324 315 305 290 277 270 252 241 232 227 214 199 195 198 194 199 199 216 236 222 209 184 156 152
Height
1532 1531 1532 1533 1534 1534 1535 1536 1537 1538 1539 1540 1541 1541 1541 1542 1542 1542 1542 1542 1542 1542 1542 1542 1542 1542 1542 1542 1542 1541 1541 1541 1541 1541 1541 1541 1541 1541 1540 1540 1540 1540 1540
1533 1532 1533 1533 1534 1535 1536 1537 1538 1538 1539 1540 1540 1541 1542 1542 1542 1542 1542 1542 1543 1543 1543 1543 1542 1542 1542 1542 1542 1542 1542 1542 1542 1542 1542 1542 1542 1541 1541 1541 1541 1541 1542
1533 1533 1533 1534 1534 1535 1536 1536 1537 1538 1538 1539 1540 1540 1541 1541 1542 1542 1542 1542 1542 1542 1542 1542 1542 1542 1542 1542 1542 1542 1543 1543 1543 1543 1542 1542 1542 1542 1542 1542 1542 1542 1542
1533 1533 1533 1534 1534 1535 1535 1536 1536 1537 1537 1538 1539 1539 1540 1540 1541 1541 1541 1542 1542 1542 1542 1542 1542 1542 1542 1542 1543 1543 1543 1543 1543 1543 1543 1543 1543 1543 1543 1542 1542 1543 1543
1533 1533 1533 1534 1534 1535 1535 1535 1536 1536 1536 1537 1537 1538 1538 1539 1539 1540 1540 1540 1541 1541 1541 1541 1541 1541 1542 1542 1542 1543 1543 1543 1544 1544 1544 1544 1543 1543 1543 1543 1543 1543 1544
1534 1534 1533 1534 1534 1534 1534 1534 1534 1535 1535 1535 1536 1536 1537 1537 1538 1538 1539 1539 1540 1540 1540 1540 1540 1540 1541 1541 1542 1542 1543 1543 1543 1544 1544 1544 1543 1543 1543 1543 1543 1544 1544
1534 1534 1534 1533 1533 1533 1533 1533 1533 1533 1534 1534 1534 1534 1535 1535 1536 1536 1537 1537 1538 1538 1539 1539 1539 1539 1540 1540 1541 1541 1542 1543 1543 1544 1544 1543 1543 1544 1543 1543 1544 1544 1545
1535 1534 1534 1533 1532 1532 1532 1531 1531 1531 1532 1532 1532 1532 1533 1533 1533 1534 1535 1535 1536 1536 1537 1537 1538 1538 1539 1539 1540 1540 1541 1542 1543 1543 1544 1544 1544 1544 1543 1544 1544 1544 1545
1535 1534 1534 1533 1532 1531 1530 1530 1530 1529 1529 1529 1530 1530 1530 1530 1531 1531 1532 1533 1533 1534 1535 1535 1536 1537 1537 1538 1538 1539 1540 1541 1542 1543 1543 1543 1544 1544 1544 1544 1544 1545 1545
1535 1535 1534 1533 1532 1530 1529 1528 1527 1527 1527 1527 1527 1527 1527 1527 1528 1529 1529 1530 1531 1532 1533 1533 1534 1535 1535 1536 1537 1538 1539 1540 1541 1542 1542 1543 1543 1544 1544 1544 1544 1545 1545
1535 1534 1534 1532 1531 1529 1528 1527 1526 1525 1524 1524 1524 1524 1524 1524 1525 1526 1526 1527 1528 1529 1530 1531 1532 1533 1534 1534 1535 1536 1537 1538 1539 1541 1541 1542 1543 1543 1543 1544 1544 1545 1546
1535 1534 1533 1531 1530 1528 1527 1526 1524 1523 1522 1521 1521 1521 1521 1521 1522 1522 1523 1524 1525 1526 1527 1529 1530 1530 1531 1532 1533 1534 1535 1536 1537 1539 1540 1541 1542 1543 1543 1543 1544 1545 1546
1535 1533 1532 1530 1529 1527 1526 1524 1522 1521 1520 1519 1519 1518 1518 1518 1519 1520 1520 1521 1522 1523 1524 1526 1527 1528 1529 1530 1531 1532 1533 1534 1537 1538 1539 1540 1541 1542 1542 1543 1543 1544 1545
1533 1532 1531 1529 1528 1526 1524 1522 1521 1520 1519 1518 1517 1516 1515 1515 1516 1517 1517 1518 1519 1520 1521 1523 1524 1525 1526 1527 1529 1530 1532 1533 1535 1536 1538 1539 1540 1541 1541 1542 1543 1544 1545
1533 1531 1530 1528 1526 1525 1523 1521 1520 1518 1517 1516 1514 1514 1513 1513 1513 1513 1514 1515 1516 1517 1518 1520 1521 1522 1524 1525 1526 1528 1530 1531 1533 1534 1535 1537 1538 1539 1540 1541 1542 1543 1545
1532 1531 1529 1527 1525 1523 1521 1519 1518 1516 1515 1514 1512 1511 1511 1511 1510 1511 1511 1511 1513 1514 1515 1516 1517 1519 1521 1522 1524 1525 1527 1529 1530 1532 1533 1535 1536 1537 1538 1540 1541 1542 1544
1531 1530 1528 1526 1523 1522 1520 1517 1516 1514 1513 1511 1510 1509 1509 1508 1508 1508 1508 1508 1509 1510 1512 1513 1514 1516 1518 1519 1520 1522 1524 1526 1528 1529 1531 1532 1534 1535 1537 1538 1539 1541 1542
1530 1529 1527 1525 1522 1520 1518 1516 1514 1513 1511 1510 1508 1507 1506 1505 1505 1505 1505 1505 1506 1507 1508 1509 1511 1512 1514 1516 1517 1519 1521 1522 1525 1527 1528 1529 1531 1533 1534 1536 1538 1539 1541
1529 1527 1526 1523 1521 1518 1516 1514 1512 1511 1509 1508 1506 1505 1504 1503 1502 1502 1502 1502 1503 1504 1505 1506 1507 1509 1511 1512 1514 1515 1517 1519 1521 1523 1525 1527 1528 1529 1531 1534 1536 1537 1539
1528 1526 1525 1522 1520 1517 1515 1513 1511 1509 1507 1506 1504 1503 1501 1500 1500 1499 1499 1499 1500 1501 1501 1502 1504 1506 1507 1509 1511 1512 1514 1515 1518 1520 1522 1523 1525 1527 1529 1531 1533 1535 1537
1527 1525 1523 1521 1519 1516 1514 1511 1509 1507 1505 1504 1502 1501 1499 1498 1497 1497 1497 1497 1497 1498 1499 1500 1501 1502 1504 1506 1508 1509 1510 1512 1514 1516 1518 1520 1522 1525 1526 1528 1530 1532 1534
1526 1524 1523 1520 1518 1516 1513 1511 1509 1507 1504 1503 1501 1499 1498 1496 1495 1495 1494 1494 1494 1495 1496 1497 1498 1499 1501 1503 1504 1506 1507 1509 1510 1513 1515 1517 1519 1522 1523 1525 1527 1529 1531
1525 1523 1522 1520 1518 1515 1513 1510 1508 1506 1503 1501 1499 1497 1496 1495 1494 1493 1492 1492 1492 1492 1493 1494 1495 1496 1498 1499 1501 1504 1505 1505 1507 1509 1511 1513 1515 1518 1520 1522 1524 1526 1528
1524 1523 1521 1519 1517 1514 1512 1510 1507 1505 1503 1501 1499 1496 1495 1494 1492 1491 1490 1490 1489 1490 1491 1492 1493 1494 1495 1496 1498 1500 1502 1503 1505 1506 1508 1510 1512 1514 1516 1518 1520 1522 1524
1523 1522 1520 1518 1516 1514 1511 1509 1507 1505 1502 1500 1498 1496 1494 1493 1491 1490 1488 1488 1488 1488 1488 1489 1490 1491 1492 1493 1495 1497 1498 1500 1502 1503 1504 1507 1509 1511 1512 1514 1516 1519 1521
1522 1521 1520 1518 1515 1513 1511 1509 1507 1504 1502 1499 1497 1495 1493 1492 1490 1488 1487 1486 1486 1486 1486 1486 1487 1488 1489 1490 1492 1493 1495 1497 1499 1500 1501 1503 1505 1507 1508 1510 1512 1515 1517